Hourly Data Report for October 05, 2016

All times are specified in Local Standard Time (LST). Add 1 hour to adjust for Daylight Saving Time where and when it is observed.

CORAL HARBOUR A
NUNAVUT

64°11'36.000" N
83°21'34.000" W
62.20 m
2301002
71915
YZS

Download Data

Hourly Data (October 2016)
Hourly Data Report for October 5, 2016
Temp Definition
°C
Dew Point Temp Definition
°C
Rel Hum Definition
%
Wind Dir Definition
10's deg

Wind Spd Definition
km/h
Visibility Definition
km
Stn Press Definition
kPa
Hmdx Definition


Wind Chill Definition


Weather Definition


TIME
00:00 Legend Double Dagger -4.2 -7.0 81 31 46 24.1 100.22   -14 LegendNANA
01:00 Legend Double Dagger -4.2 -7.2 80 31 43 24.1 100.34   -13 Mainly Clear
02:00 Legend Double Dagger -4.3 -7.4 79 31 44 24.1 100.44   -14 LegendNANA
03:00 Legend Double Dagger -4.3 -7.4 79 31 39 24.1 100.53   -13 LegendNANA
04:00 Legend Double Dagger -4.6 -7.7 79 32 43 24.1 100.61   -14 Clear
05:00 Legend Double Dagger -5.0 -7.9 80 32 33 24.1 100.72   -13 LegendNANA
06:00 Legend Double Dagger -5.5 -8.3 81 31 27 24.1 100.80   -13 LegendNANA
07:00 Legend Double Dagger -5.5 -8.1 82 30 29 24.1 100.89   -14 Clear
08:00 Legend Double Dagger -5.1 -8.2 79 31 29 24.1 100.95   -13 LegendNANA
09:00 Legend Double Dagger -4.4 -8.2 75 32 37 24.1 101.00   -13 LegendNANA
10:00 Legend Double Dagger -3.5 -7.8 72 33 41 24.1 101.04   -12 Clear
11:00 Legend Double Dagger -3.0 -7.5 71 31 38 24.1 101.10   -11 LegendNANA
12:00 Legend Double Dagger -2.5 -7.2 70 31 42 24.1 101.12   -11 LegendNANA
13:00 Legend Double Dagger -2.4 -7.2 70 32 42 24.1 101.14   -11 Mainly Clear
14:00 Legend Double Dagger -2.2 -6.8 71 32 39 24.1 101.18   -10 LegendNANA
15:00 Legend Double Dagger -2.1 -6.7 71 33 32 24.1 101.23   -9 LegendNANA
16:00 Legend Double Dagger -2.5 -6.9 72 32 35 24.1 101.24   -10 Clear
17:00 Legend Double Dagger -3.1 -6.9 75 32 34 24.1 101.27   -11 LegendNANA
18:00 Legend Double Dagger -3.9 -7.0 79 33 28 24.1 101.35   -11 LegendNANA
19:00 Legend Double Dagger -4.1 -7.2 79 34 41 24.1 101.29   -13 Mainly Clear
20:00 Legend Double Dagger -4.1 -6.9 81 34 39 24.1 101.33   -13 LegendNANA
21:00 Legend Double Dagger -3.6 -6.6 80 35 22 24.1 101.41   -10 LegendNANA
22:00 Legend Double Dagger -3.3 -6.4 79 32 21 24.1 101.43   -10 Mostly Cloudy
23:00 Legend Double Dagger -3.8 -6.6 81 33 21 24.1 101.42   -10 LegendNANA

Notes on Data Quality.

Legend

  • E = Estimated
  • M = Missing
  • NA = Not Available
  • ‡ = Partner data that is not subject to review by the National Climate Archives
Date modified: